Theta_e
355 356 359 357 359 357 354 354 353 355 354 354 353 351 344 351 352 346 343 339 341 340 345 344 341 339 345 343 343 342 341 340 339 339 340 340 340 339 338 337 337 337 335
356 357 356 357 356 357 357 355 356 356 357 355 356 355 349 350 351 351 347 344 343 346 343 337 336 339 341 344 342 340 340 344 343 340 339 339 339 339 337 340 338 337 336
359 354 355 353 354 355 357 359 355 355 353 350 349 350 348 354 354 352 350 348 346 346 342 339 341 343 345 342 341 340 340 337 337 339 339 340 338 338 338 339 339 338 335
360 353 354 347 346 355 342 354 355 356 353 353 347 348 344 352 350 343 346 349 345 343 343 343 342 343 347 344 344 341 339 339 335 335 334 338 339 339 338 339 339 338 336
359 356 353 350 352 355 354 353 355 356 354 355 357 349 345 350 351 343 340 341 335 340 342 342 339 340 344 342 341 339 340 338 335 335 334 336 336 339 339 338 339 339 338
357 355 355 353 356 358 356 356 356 356 356 358 357 353 344 349 351 345 342 332 332 334 339 342 341 342 341 342 340 339 339 335 336 333 333 336 338 337 340 339 339 339 338
353 355 358 356 358 358 357 358 354 356 358 354 357 354 351 351 350 347 334 330 333 335 336 338 338 339 340 338 339 338 338 339 339 333 334 335 337 336 338 340 339 339 338
352 353 356 359 359 359 358 359 355 355 355 355 356 353 349 349 348 346 341 337 337 338 336 339 337 337 336 337 337 337 337 339 337 333 336 334 333 335 337 339 339 339 338
355 357 355 354 355 357 361 359 359 357 355 357 356 355 349 348 347 347 344 341 338 337 335 337 336 335 336 338 339 336 337 339 337 335 333 332 332 333 335 337 339 339 339
351 352 354 356 360 362 361 363 360 359 357 355 356 358 355 354 349 349 343 341 342 337 334 336 336 337 338 338 338 339 337 337 338 336 330 328 329 331 336 336 338 339 338
355 356 355 357 362 357 362 362 359 358 355 358 359 358 354 353 352 348 350 341 341 336 336 337 339 336 336 336 337 339 339 337 336 335 329 329 329 329 333 337 336 337 338
355 355 356 357 358 362 360 358 355 355 352 356 354 354 353 353 351 348 347 340 335 337 338 337 336 335 337 337 338 338 338 338 334 334 331 330 331 326 329 334 333 335 338
352 354 359 361 361 360 357 353 354 352 353 356 355 354 354 353 352 351 346 342 336 339 338 337 335 335 336 335 335 336 336 335 334 331 331 330 325 324 327 331 335 338 340
357 356 355 352 350 350 352 354 353 353 357 354 354 355 355 353 354 352 349 340 339 338 337 336 336 335 335 333 331 330 334 333 331 331 329 329 330 331 329 329 330 334 338
354 353 354 353 353 352 353 356 355 354 360 358 358 356 355 356 355 355 351 345 340 340 337 335 335 333 330 330 327 328 331 331 331 330 331 330 327 328 328 326 326 331 332
353 358 354 351 348 354 357 358 358 360 361 360 360 357 355 356 355 355 348 345 343 339 337 335 335 332 329 330 328 325 326 328 329 329 328 326 326 326 326 326 324 331 331
359 357 354 353 351 358 360 361 361 361 361 356 359 357 358 358 355 352 345 345 344 337 333 335 334 331 328 329 326 324 324 326 327 327 327 327 326 327 323 323 325 327 332
355 355 353 355 358 362 361 363 361 362 356 359 357 356 354 352 355 350 345 344 342 338 335 334 331 329 328 327 326 326 322 320 320 320 320 320 320 320 321 321 324 323 329
352 352 357 359 361 363 362 364 363 359 356 357 354 353 349 348 354 350 345 344 341 337 335 333 332 329 329 327 328 328 325 323 319 318 319 320 322 322 323 323 322 323 322
358 358 358 362 365 363 364 363 361 352 358 353 353 351 347 348 350 350 346 342 338 336 334 333 332 330 328 327 328 327 325 325 321 319 317 319 322 323 324 325 324 322 322
358 359 361 363 362 365 362 358 349 358 353 354 352 348 346 348 350 349 345 339 336 336 334 333 332 331 330 328 329 328 326 325 322 322 321 319 319 321 324 324 325 324 324
359 362 362 364 364 363 359 353 347 356 354 352 349 347 346 346 346 345 343 337 334 335 335 334 333 331 332 329 330 330 328 326 326 324 324 322 321 319 321 323 325 325 326
364 363 365 363 366 360 354 350 350 354 351 348 347 346 345 344 344 343 339 337 333 335 335 334 332 332 331 330 330 328 329 328 329 326 326 325 326 326 326 326 325 324 327
364 364 365 366 362 357 355 343 351 354 348 346 346 345 344 342 341 340 335 335 334 332 333 335 333 331 331 331 330 329 328 329 329 326 327 328 327 328 328 327 326 324 323
365 366 367 366 359 356 352 342 350 353 347 345 344 344 343 342 338 336 334 334 331 331 333 335 334 331 331 331 329 328 329 329 329 328 328 328 327 329 327 327 325 324 324
368 368 365 362 356 355 344 345 347 351 347 343 342 343 342 342 339 340 335 331 330 331 332 335 335 334 332 332 330 330 329 329 330 329 330 329 329 329 329 328 325 323 323
Wind_Speed
2 6 8 6 5 7 10 6 5 11 14 14 13 12 16 28 23 22 27 26 11 25 21 21 23 20 23 22 18 15 17 18 20 20 21 21 20 21 20 19 19 16 14
1 3 6 8 7 5 8 9 6 5 10 8 12 13 11 10 17 19 24 24 15 15 18 22 28 18 24 25 22 21 20 19 18 18 19 21 22 21 21 21 20 18 15
3 3 6 8 3 4 10 7 13 6 2 7 10 14 6 13 12 10 6 10 8 11 19 18 12 15 19 24 24 23 25 25 19 17 18 21 23 25 25 22 21 21 18
6 1 5 4 5 6 9 3 7 5 7 10 8 6 10 9 10 9 10 10 7 10 5 17 16 13 20 23 20 19 21 23 22 18 19 21 24 25 27 26 25 23 21
11 7 4 7 4 2 7 7 4 6 7 13 12 11 11 3 9 9 11 13 12 10 8 10 19 19 19 21 17 17 19 21 20 19 19 20 23 27 27 27 27 25 24
11 5 6 5 1 6 4 1 6 8 11 12 8 9 9 4 9 6 14 7 6 10 5 9 11 12 13 16 17 20 22 21 20 16 19 18 21 25 28 28 28 26 25
8 8 6 8 8 8 2 4 7 8 12 13 6 6 3 9 9 9 9 5 9 16 10 7 7 9 11 11 13 15 17 20 25 18 14 13 17 21 26 28 28 27 28
5 5 7 1 2 1 7 11 11 9 13 10 4 3 2 3 8 12 13 12 15 17 12 7 4 2 6 11 14 16 15 18 24 20 12 13 13 18 22 26 28 28 29
9 12 9 7 6 5 7 7 9 7 9 9 9 4 2 3 2 9 14 12 12 10 4 5 5 6 8 12 14 16 15 17 16 16 16 15 13 16 20 23 26 27 30
13 13 11 11 7 5 7 6 9 9 10 14 15 13 13 13 3 3 6 8 10 8 3 2 1 4 2 7 8 13 17 17 25 20 19 14 13 12 16 21 22 27 28
19 17 12 8 8 7 8 9 11 11 14 13 12 17 18 13 12 5 6 3 8 6 3 5 5 3 5 4 6 7 14 19 26 24 23 20 15 10 10 15 19 23 27
19 20 13 10 7 6 8 9 11 13 15 14 13 13 14 9 9 4 4 2 1 3 5 6 5 4 4 6 3 4 10 22 23 16 19 19 16 13 9 12 15 21 26
7 11 15 9 7 6 7 10 12 13 14 12 10 14 14 18 17 12 4 2 2 2 3 5 4 5 5 6 6 4 8 14 15 16 19 19 13 10 8 7 12 17 21
4 3 4 6 6 7 5 9 10 13 12 12 15 17 17 17 14 11 6 8 2 2 3 4 7 6 8 7 9 7 10 12 14 16 17 18 17 15 12 10 10 14 20
13 8 7 7 3 5 8 8 12 11 10 14 14 15 15 14 12 9 5 12 6 2 2 3 3 10 12 10 10 11 11 10 12 16 19 19 17 14 9 8 6 9 15
14 14 6 10 10 6 6 8 9 11 11 11 12 12 13 11 10 7 5 8 5 5 3 3 7 14 12 13 10 13 13 13 10 11 13 14 12 13 11 8 7 5 13
19 16 13 14 11 7 6 7 9 10 9 11 10 11 12 7 8 5 7 9 8 7 7 6 20 15 15 12 14 15 12 14 14 12 11 11 10 12 8 8 8 8 10
24 22 17 15 12 8 9 9 7 7 10 9 9 9 10 10 7 8 10 12 10 7 19 18 19 18 15 12 15 12 13 12 12 11 10 9 8 7 7 9 11 10 9
27 24 19 17 15 12 10 9 8 6 4 6 7 9 12 10 7 10 12 13 12 12 21 21 18 18 15 13 13 9 10 11 9 9 9 8 7 7 6 8 9 10 10
25 22 20 17 15 15 12 10 7 0 2 5 4 8 12 9 6 12 11 13 16 21 18 21 20 18 14 13 13 15 14 8 9 7 6 7 7 6 7 8 9 11 12
27 23 20 18 17 16 15 7 3 3 2 6 6 8 11 8 7 7 11 17 20 21 19 20 12 14 12 14 14 12 15 10 9 7 8 7 7 8 9 8 9 10 11
28 26 21 17 21 20 14 7 5 6 5 5 7 7 9 4 6 7 11 19 19 22 16 17 13 16 15 15 13 15 15 15 3 9 6 7 8 7 7 8 9 10 9
29 26 21 21 23 19 11 7 9 9 7 5 5 3 4 5 8 15 18 16 17 13 11 12 18 17 17 16 15 17 17 14 5 12 10 6 7 5 5 8 7 7 7
31 30 28 29 27 20 13 11 14 12 10 7 5 4 5 10 13 19 19 18 10 8 7 11 15 17 14 15 15 14 17 9 5 15 12 4 10 10 11 9 7 6 7
32 31 31 30 26 19 14 15 17 14 11 10 6 9 7 13 13 14 15 14 10 10 10 10 11 16 13 16 14 15 14 13 8 11 13 6 11 8 12 12 10 9 9
27 31 29 29 23 17 15 16 16 16 14 11 8 10 9 17 17 11 13 15 12 10 13 17 18 15 15 13 13 9 15 14 4 4 13 10 13 9 4 8 9 10 11
Wind_Direction
216 264 273 258 305 281 208 260 242 239 250 252 260 247 246 238 256 232 222 210 226 218 209 228 228 220 195 190 194 213 218 220 219 216 216 218 215 204 200 186 182 176 169
228 323 290 279 291 295 277 280 281 271 284 317 295 263 269 255 241 226 215 209 220 197 231 249 229 232 198 186 190 197 207 216 219 220 217 224 220 212 201 196 189 185 177
224 271 316 293 180 246 280 316 289 283 301 352 11 3 84 142 137 157 132 180 198 224 239 242 263 207 208 196 193 205 209 211 205 222 219 227 223 218 210 206 201 195 197
208 235 332 294 276 315 243 328 37 25 7 1 5 14 29 135 116 111 119 121 111 34 230 240 223 245 215 202 199 208 212 210 208 214 213 221 226 220 216 211 208 203 199
215 196 290 341 186 308 240 276 347 6 3 334 310 336 349 131 140 134 131 119 61 47 113 208 231 259 225 224 231 218 213 209 205 207 212 217 221 222 218 214 211 210 210
212 187 244 301 5 192 178 288 360 346 334 325 275 323 334 236 186 167 141 142 52 41 7 214 222 235 228 222 222 222 218 211 214 212 207 215 219 217 217 216 215 212 209
174 205 257 265 260 231 290 328 323 337 332 348 300 319 339 182 187 196 210 254 325 349 342 219 208 220 228 240 234 218 235 225 217 206 198 215 211 215 216 213 212 207 206
218 209 216 259 347 296 321 312 338 350 325 347 326 299 320 243 211 213 243 272 305 337 349 184 258 271 254 245 242 248 247 224 195 190 189 200 205 215 213 212 212 204 208
199 220 221 239 256 267 301 315 345 330 308 318 320 276 331 251 301 240 251 281 309 341 13 168 207 261 268 272 266 244 233 215 194 184 197 211 200 220 209 206 211 210 207
221 217 236 253 253 288 298 309 324 326 334 324 318 309 305 267 205 301 268 280 327 344 9 192 274 319 299 275 271 239 230 211 198 184 182 182 202 211 207 210 205 214 208
231 231 238 252 229 296 292 305 321 325 320 305 304 313 317 308 279 214 289 297 353 26 92 101 86 35 327 302 267 239 219 210 185 185 181 191 189 199 196 202 205 211 209
236 242 230 251 250 257 281 302 324 323 322 311 311 313 311 301 301 237 237 285 244 68 78 114 104 7 31 11 4 249 202 181 183 193 198 196 186 181 180 194 189 206 209
311 305 223 224 249 258 286 317 323 324 325 324 318 323 314 314 322 303 182 204 188 130 123 108 83 87 78 85 58 84 178 187 174 177 174 180 172 171 177 169 185 198 204
124 53 213 236 245 280 316 322 319 323 330 334 327 323 327 329 332 301 212 161 161 149 102 125 97 96 114 85 76 96 154 179 179 177 182 177 169 160 163 181 184 195 202
269 284 179 181 233 299 310 314 317 323 327 329 335 334 337 347 348 338 232 186 154 140 129 105 106 120 101 83 86 99 125 158 176 177 179 176 177 171 164 180 178 194 204
248 258 262 286 295 283 295 303 309 314 325 333 341 337 346 354 353 23 139 165 173 140 110 115 110 137 107 102 83 102 112 121 144 165 176 159 170 187 192 179 177 170 189
234 244 256 270 274 272 279 279 291 324 334 340 353 356 12 5 19 107 137 159 174 112 111 104 134 134 115 115 108 99 113 124 128 137 144 162 173 180 175 176 175 171 172
238 247 258 258 261 258 262 269 306 295 337 359 13 30 36 24 63 138 158 160 167 133 130 127 139 136 129 117 118 112 112 122 128 134 143 155 161 163 161 171 179 175 168
244 248 248 249 250 249 254 258 256 321 6 20 28 35 24 28 105 161 160 160 151 130 142 136 137 142 134 135 123 139 145 113 128 136 143 149 150 153 155 161 174 174 180
238 239 239 244 250 244 240 244 269 35 59 31 60 37 30 44 116 165 159 155 137 134 138 138 143 143 145 146 138 135 138 133 134 133 153 155 149 148 157 159 163 174 187
236 236 236 239 245 228 242 238 263 128 61 99 69 51 39 67 123 160 152 153 144 139 142 146 145 150 158 165 165 163 158 147 149 139 150 167 174 167 167 175 168 177 190
233 229 230 231 235 234 231 221 184 144 138 102 82 76 51 92 114 129 150 153 151 151 148 157 162 164 175 184 178 164 154 150 141 189 167 175 187 188 186 187 176 178 183
229 226 224 224 229 220 199 210 174 157 157 100 102 103 71 114 137 139 147 147 147 155 166 171 176 189 179 183 176 171 173 172 186 181 180 194 199 213 171 176 173 175 180
224 223 217 215 210 194 193 194 176 172 168 165 157 145 132 135 134 143 145 144 151 144 157 185 208 193 186 172 189 185 179 175 142 164 171 164 202 212 210 197 190 192 192
217 221 216 208 198 192 199 187 176 179 177 160 165 165 161 153 144 149 157 153 137 108 114 118 148 176 178 175 169 169 168 151 137 181 197 187 180 181 184 192 202 211 207
209 211 202 200 195 189 184 191 187 193 177 160 153 158 173 166 162 170 172 168 152 139 122 132 140 155 161 165 174 182 160 165 155 159 207 197 167 155 161 204 218 211 204